Tracking 19706 objects as of 17-Jun-2019
HD Live streaming from Space Station
objects crossing your sky now

DELTA 2 R/B(1)

Track DELTA 2 R/B(1) now!
10-day predictions


NORAD ID: 22015
Int'l Code: 1992-039B
Perigee: 484.8 km
Apogee: 550.9 km
Inclination: 20.7 °
Period: 94.8 minutes
Semi major axis: 6888 km
RCS: 9.3859 m2 (large)
Launch date: July 7, 1992
Source: United States (US)
Launch site: AIR FORCE EASTERN TEST RANGE (AFETR)

Note: This is a ROCKET BODY
aabbcc
Your satellite tracking list
Your tracking list is empty




NASA's NSSDC Master Catalog

Two Line Element Set (TLE):
1 22015U 92039B   19167.30594340 +.00001203 +00000-0 +30125-4 0  9996
2 22015 020.7138 157.5443 0047985 331.6470 028.1363 15.18374534501346
Source of the keplerian elements: AFSPC